This is the latest recevied weather packets stored in our database for station/object WP3XM. If no packets are shown the sender has not sent any weather packets the latest 10 day(s).
| Time | Temp. | Humidity | Pressure | Rain* | Wind** | Luminosity | Snow |
|---|---|---|---|---|---|---|---|
| 1777652585 | 30.56° C | 65% | 1016.2 hPa | 0 mm | - | 1063 W/m² | - |
| 1777652281 | 30° C | 67% | 1016.4 hPa | 0 mm | - | 1051 W/m² | - |
| 1777651979 | 30° C | 68% | 1016.5 hPa | 0 mm | - | 831 W/m² | - |
| 1777651675 | 30° C | 66% | 1016.6 hPa | 0 mm | - | 381 W/m² | - |
| 1777651372 | 30° C | 67% | 1016.6 hPa | 0 mm | - | 1039 W/m² | - |
| 1777651070 | 30.56° C | 66% | 1016.4 hPa | 0 mm | - | 488 W/m² | - |
| 1777650766 | 30.56° C | 66% | 1016.4 hPa | 0 mm | - | 565 W/m² | - |
| 1777650463 | 30.56° C | 65% | 1016.4 hPa | 0 mm | - | 380 W/m² | - |
| 1777650160 | 30.56° C | 66% | 1016.6 hPa | 0 mm | - | 1054 W/m² | - |
| 1777649858 | 30.56° C | 65% | 1016.5 hPa | 0 mm | - | 738 W/m² | - |
| 1777649555 | 30.56° C | 66% | 1016.6 hPa | 0 mm | - | 742 W/m² | - |
| 1777649251 | 30° C | 68% | 1016.5 hPa | 0 mm | - | 1057 W/m² | - |
| 1777648948 | 30.56° C | 66% | 1016.6 hPa | 0 mm | - | 990 W/m² | - |
| 1777648645 | 30.56° C | 66% | 1016.6 hPa | 0 mm | - | 897 W/m² | - |
| 1777648342 | 30.56° C | 67% | 1016.7 hPa | 0 mm | - | 1049 W/m² | - |
| 1777648038 | 30° C | 69% | 1016.7 hPa | 0 mm | - | 957 W/m² | - |
| 1777647734 | 30° C | 69% | 1016.8 hPa | 0 mm | - | 697 W/m² | - |
| 1777647431 | 30° C | 68% | 1016.9 hPa | 0 mm | - | 595 W/m² | - |
| 1777647129 | 28.89° C | 72% | 1017 hPa | 0 mm | - | 826 W/m² | - |
| 1777646825 | 29.44° C | 70% | 1017 hPa | 0 mm | - | 284 W/m² | - |
| 1777646520 | 29.44° C | 68% | 1017 hPa | 0 mm | - | 571 W/m² | - |
| 1777646216 | 29.44° C | 69% | 1016.8 hPa | 0 mm | - | 346 W/m² | - |
| 1777645914 | 29.44° C | 70% | 1016.9 hPa | 0 mm | - | 343 W/m² | - |
| 1777645611 | 30° C | 70% | 1016.7 hPa | 0 mm | - | 545 W/m² | - |
| 1777645307 | 28.89° C | 73% | 1016.7 hPa | 0 mm | - | 813 W/m² | - |
* Rain latest hour (hover to see other rain measurements)
** Current wind speed in m/s (hover to see current wind gust speed)